Stündliche Wetter Centenário do Sul

Heute, 27 Januar, Mittwoch

Zeit Temperatur Niederschläge Wind Luftdruck Luftfeuchtigkeit
00:00 +24°C° 0 mm 2 m/S 719 mmHg 87%
01:00 +24°C° 0 mm 2 m/S 719 mmHg 88%
02:00 +24°C° 0 mm 2 m/S 719 mmHg 89%
03:00 +23°C° 0 mm 2 m/S 719 mmHg 89%
04:00 +23°C° 0 mm 2 m/S 719 mmHg 90%
05:00 +23°C° 0 mm 2 m/S 719 mmHg 90%
06:00 +23°C° 0 mm 2 m/S 719 mmHg 91%
07:00 +24°C° 0 mm 2 m/S 719 mmHg 88%
08:00 +25°C° 0 mm 3 m/S 720 mmHg 86%
09:00 +26°C° 0 mm 3 m/S 720 mmHg 83%
10:00 +27°C° 0.1 mm 3 m/S 720 mmHg 81%
11:00 +28°C° 0.1 mm 3 m/S 719 mmHg 78%
12:00 +29°C° 0.1 mm 4 m/S 719 mmHg 75%
13:00 +30°C° 0.8 mm 4 m/S 719 mmHg 72%
14:00 +31°C° 0.8 mm 3 m/S 718 mmHg 70%
15:00 +31°C° 0.8 mm 3 m/S 718 mmHg 67%
16:00 +30°C° 2.1 mm 3 m/S 718 mmHg 73%
17:00 +29°C° 2.1 mm 2 m/S 717 mmHg 78%
18:00 +28°C° 2.1 mm 1 m/S 717 mmHg 84%
19:00 +27°C° 0.7 mm 1 m/S 717 mmHg 83%
20:00 +26°C° 0.7 mm 1 m/S 717 mmHg 83%
21:00 +26°C° 0.7 mm 1 m/S 718 mmHg 82%
22:00 +25°C° 0 mm 1 m/S 718 mmHg 83%
23:00 +25°C° 0 mm 1 m/S 718 mmHg 84%

Morgen, 28 Januar, Donnerstag

Zeit Temperatur Niederschläge Wind Luftdruck Luftfeuchtigkeit
00:00 +25°C° 0 mm 1 m/S 718 mmHg 85%
01:00 +24°C° 0 mm 2 m/S 718 mmHg 89%
02:00 +24°C° 0 mm 2 m/S 718 mmHg 92%
03:00 +22°C° 0 mm 3 m/S 717 mmHg 95%
04:00 +22°C° 0.1 mm 3 m/S 717 mmHg 96%
05:00 +23°C° 0.1 mm 2 m/S 717 mmHg 96%
06:00 +23°C° 0.1 mm 1 m/S 717 mmHg 96%
07:00 +24°C° 0 mm 2 m/S 718 mmHg 93%
08:00 +25°C° 0 mm 2 m/S 719 mmHg 90%
09:00 +26°C° 0 mm 3 m/S 719 mmHg 86%
10:00 +26°C° 0.4 mm 3 m/S 719 mmHg 83%
11:00 +27°C° 0.4 mm 4 m/S 719 mmHg 80%
12:00 +28°C° 0.4 mm 5 m/S 719 mmHg 77%
13:00 +29°C° 0.6 mm 4 m/S 719 mmHg 77%
14:00 +29°C° 0.6 mm 4 m/S 718 mmHg 76%
15:00 +29°C° 0.6 mm 3 m/S 718 mmHg 75%
16:00 +29°C° 1.1 mm 2 m/S 717 mmHg 79%
17:00 +28°C° 1.1 mm 2 m/S 717 mmHg 82%
18:00 +27°C° 1.1 mm 1 m/S 717 mmHg 85%
19:00 +27°C° 0.5 mm 1 m/S 717 mmHg 86%
20:00 +26°C° 0.5 mm 1 m/S 717 mmHg 87%
21:00 +25°C° 0.5 mm 1 m/S 718 mmHg 88%
22:00 +25°C° 0.3 mm 1 m/S 718 mmHg 90%
23:00 +24°C° 0.3 mm 1 m/S 718 mmHg 91%

übermorgen, 29 Januar, Freitag

Zeit Temperatur Niederschläge Wind Luftdruck Luftfeuchtigkeit
00:00 +24°C° 0.3 mm 1 m/S 718 mmHg 92%
01:00 +24°C° 0.7 mm 1 m/S 718 mmHg 93%
02:00 +23°C° 0.7 mm 1 m/S 718 mmHg 93%
03:00 +23°C° 0.7 mm 1 m/S 718 mmHg 94%
04:00 +23°C° 1.6 mm 1 m/S 718 mmHg 95%
05:00 +23°C° 1.6 mm 1 m/S 718 mmHg 96%
06:00 +23°C° 1.6 mm 1 m/S 719 mmHg 97%
07:00 +23°C° 1.7 mm 1 m/S 719 mmHg 97%
08:00 +23°C° 1.7 mm 1 m/S 719 mmHg 96%
09:00 +23°C° 1.7 mm 1 m/S 720 mmHg 96%
10:00 +23°C° 0.3 mm 1 m/S 720 mmHg 94%
11:00 +24°C° 0.3 mm 2 m/S 720 mmHg 93%
12:00 +25°C° 0.3 mm 2 m/S 720 mmHg 91%
13:00 +25°C° 0 mm 2 m/S 719 mmHg 88%
14:00 +26°C° 0 mm 2 m/S 719 mmHg 85%
15:00 +27°C° 0 mm 3 m/S 718 mmHg 82%
16:00 +27°C° 0.2 mm 2 m/S 718 mmHg 82%
17:00 +27°C° 0.2 mm 2 m/S 718 mmHg 82%
18:00 +27°C° 0.2 mm 2 m/S 718 mmHg 82%
19:00 +26°C° 0.1 mm 2 m/S 718 mmHg 84%
20:00 +25°C° 0.1 mm 2 m/S 719 mmHg 86%
21:00 +24°C° 0.1 mm 2 m/S 719 mmHg 89%
22:00 +24°C° 0 mm 1 m/S 719 mmHg 88%
23:00 +24°C° 0 mm 1 m/S 719 mmHg 87%

30 Januar, Samstag

Zeit Temperatur Niederschläge Wind Luftdruck Luftfeuchtigkeit
00:00 +24°C° 0 mm 1 m/S 719 mmHg 86%
01:00 +23°C° 0 mm 1 m/S 719 mmHg 87%
02:00 +23°C° 0 mm 1 m/S 719 mmHg 88%
03:00 +23°C° 0 mm 2 m/S 719 mmHg 89%
04:00 +23°C° 0 mm 2 m/S 719 mmHg 90%
05:00 +23°C° 0 mm 2 m/S 719 mmHg 90%
06:00 +21°C° 0 mm 2 m/S 719 mmHg 91%
07:00 +24°C° 0 mm 2 m/S 720 mmHg 89%
08:00 +25°C° 0 mm 3 m/S 720 mmHg 87%
09:00 +26°C° 0 mm 3 m/S 721 mmHg 84%
10:00 +27°C° 1.3 mm 3 m/S 721 mmHg 82%
11:00 +29°C° 1.3 mm 4 m/S 721 mmHg 79%
12:00 +30°C° 1.3 mm 4 m/S 721 mmHg 76%
13:00 +30°C° 1.2 mm 4 m/S 720 mmHg 74%
14:00 +31°C° 1.2 mm 3 m/S 720 mmHg 73%
15:00 +31°C° 1.2 mm 3 m/S 719 mmHg 71%
16:00 +30°C° 0.5 mm 3 m/S 719 mmHg 74%
17:00 +30°C° 0.5 mm 2 m/S 719 mmHg 76%
18:00 +30°C° 0.5 mm 1 m/S 719 mmHg 79%
19:00 +28°C° 0.3 mm 1 m/S 719 mmHg 80%
20:00 +27°C° 0.3 mm 1 m/S 719 mmHg 82%
21:00 +24°C° 0.3 mm 0 m/S 720 mmHg 83%
22:00 +25°C° 0 mm 1 m/S 720 mmHg 84%
23:00 +25°C° 0 mm 1 m/S 720 mmHg 85%

31 Januar, Sonntag

Zeit Temperatur Niederschläge Wind Luftdruck Luftfeuchtigkeit
00:00 +24°C° 0 mm 1 m/S 720 mmHg 87%
01:00 +24°C° 0 mm 2 m/S 720 mmHg 88%
02:00 +24°C° 0 mm 2 m/S 720 mmHg 89%
03:00 +24°C° 0 mm 2 m/S 719 mmHg 89%
04:00 +23°C° 0 mm 2 m/S 720 mmHg 90%
05:00 +23°C° 0 mm 2 m/S 720 mmHg 91%
06:00 +23°C° 0 mm 2 m/S 720 mmHg 91%
07:00 +24°C° 0 mm 2 m/S 721 mmHg 88%
08:00 +26°C° 0 mm 2 m/S 721 mmHg 85%
09:00 +27°C° 0 mm 2 m/S 722 mmHg 81%
10:00 +28°C° 0.2 mm 3 m/S 721 mmHg 76%
11:00 +30°C° 0.2 mm 3 m/S 721 mmHg 71%
12:00 +31°C° 0.2 mm 3 m/S 721 mmHg 66%
13:00 +31°C° 1 mm 3 m/S 721 mmHg 67%
14:00 +31°C° 1 mm 3 m/S 720 mmHg 68%
15:00 +31°C° 1 mm 2 m/S 719 mmHg 70%
16:00 +31°C° 0.3 mm 2 m/S 719 mmHg 72%
17:00 +30°C° 0.3 mm 1 m/S 719 mmHg 75%
18:00 +30°C° 0.3 mm 1 m/S 719 mmHg 78%
19:00 +29°C° 0.1 mm 1 m/S 719 mmHg 79%
20:00 +27°C° 0.1 mm 1 m/S 719 mmHg 81%
21:00 +26°C° 0.1 mm 1 m/S 719 mmHg 82%
22:00 +25°C° 0 mm 1 m/S 719 mmHg 83%
23:00 +25°C° 0 mm 1 m/S 719 mmHg 83%

1 Februar, Montag

Zeit Temperatur Niederschläge Wind Luftdruck Luftfeuchtigkeit
00:00 +25°C° 0 mm 1 m/S 720 mmHg 84%
01:00 +25°C° 0.2 mm 1 m/S 719 mmHg 85%
02:00 +24°C° 0.2 mm 1 m/S 719 mmHg 86%
03:00 +24°C° 0.2 mm 1 m/S 718 mmHg 88%
04:00 +24°C° 0 mm 1 m/S 718 mmHg 89%
05:00 +23°C° 0 mm 1 m/S 719 mmHg 90%
06:00 +23°C° 0 mm 2 m/S 719 mmHg 91%
07:00 +25°C° 0.4 mm 2 m/S 719 mmHg 88%
08:00 +26°C° 0.4 mm 2 m/S 720 mmHg 86%
09:00 +28°C° 0.4 mm 2 m/S 720 mmHg 83%
10:00 +28°C° 1.9 mm 2 m/S 720 mmHg 81%
11:00 +29°C° 1.9 mm 2 m/S 720 mmHg 78%
12:00 +30°C° 1.9 mm 2 m/S 720 mmHg 75%
13:00 +29°C° 0.8 mm 2 m/S 720 mmHg 78%
14:00 +28°C° 0.8 mm 1 m/S 720 mmHg 81%
15:00 +27°C° 0.8 mm 1 m/S 719 mmHg 84%
16:00 +26°C° 0.3 mm 1 m/S 719 mmHg 86%
17:00 +26°C° 0.3 mm 2 m/S 719 mmHg 88%
18:00 +25°C° 0.3 mm 2 m/S 719 mmHg 89%
19:00 +24°C° 0 mm 2 m/S 719 mmHg 91%
20:00 +24°C° 0 mm 2 m/S 719 mmHg 92%
21:00 +23°C° 0 mm 2 m/S 719 mmHg 93%
22:00 +23°C° 0 mm 2 m/S 720 mmHg 93%
23:00 +23°C° 0 mm 2 m/S 720 mmHg 93%
Mehr zeigen

Wir brauchen deine Erlaubnis

Meteoprog und unser Service Anbieter werden persönliche Daten aufbewahren, so wie Cookies, Geräte Bezeichnung oder ähnliche Technologien von deinem Gerät und Prozess, so wie Persönliche Daten Inhalte und Werbungen, genauso wie social Media und den Verkehr zu analysieren.

  • Aufbewahrung und/oder Zugang zu deiner Geräte Informationen.

    Cookies, Geräte Bezeichnung oder andere Informationen, können aufbewahrt oder Zugang zu deinem Gerät erhalten, für den Grund, der oben angegeben wird.

  • Personalisierte Werbung und Inhalte, Messungen, Einblick in das Publikum und Produkt Entwicklung.

    Werbungen und Inhalte können personalisiert werden, basierend auf ein Profil. Mehr Daten können besser personalisierte Werbungen und Inhalte hinzufügen. Werbung und Inhalte können gezeigt und gemessen werden. Einblicke über das Publikum, welche die Werbung gesehen haben und den Inhalt, können abgeleitet werden. So wie Daten können genutzt werden, um es zu verbessern oder die Benutzer Erfahrung zu verbessern das System und die Software.

Wenn du “Ich stimme zu” klickst, erlaubst du uns, die Cookies zu benutzen die Geräte Bezeichnung, den Web oder ähnliche Technologien zu benutzen. Deine Settings, können in deinem Gerät bei deinem Browser geändert werden.

Für den bestimmten Zweck, berechtigten Interessen beruhen darauf, mehr als auf den Inhalt. Du kannst mehr darüber in unseren Privaten und Cookie Politik lesen.